User: anonymous
Location: Caltech
(34.1382°N, 118.1253°W)
Time: 10:20:06
(UTC-07:00)
Language:

Cosmos 44 Rocket - Orbit

View from above orbital plane
View from above orbital plane
View from above satellite
View from above satellite

Ground track
Ground track

The orbit data is extracted from the following two-line orbital elements,

1 00877U 64053B   14234.95731477  .00000077  00000-0  40993-4 0  6964
2 00877 065.0792 058.9609 0061302 169.4155 190.8251 14.58872002651345
Epoch (UTC): 22 August 2014 22:58:31
Eccentricity: 0.0061302
inclination: 65.0792°
perigee height: 653 km
apogee height: 740 km
right ascension of ascending node: 58.9609°
argument of perigee: 169.4155°
revolutions per day: 14.58872002
mean anomaly at epoch: 190.8251°
orbit number at epoch: 65134

The dashed part of the orbit path shows where the satellite is in the earth's shadow,  

DLR